owner,sensor,date,latitude,longitude,vertical_datum,wind_speed,wind_to_direction,wind_speed_of_gust,qcFlag 
WAVCIS,ioos:station:WAVCIS:CSI06:1,2011-09-01T00:00:00Z,28.8667,-90.4833,10.0,8.74,76.0,,'11111222,11111222,99999999' 
WAVCIS,ioos:station:WAVCIS:CSI06:1,2011-09-01T01:00:00Z,28.8667,-90.4833,10.0,8.0,82.0,,'11111222,11111222,99999999' 
WAVCIS,ioos:station:WAVCIS:CSI06:1,2011-09-01T02:00:00Z,28.8667,-90.4833,10.0,8.41,75.0,,'11111222,11111222,99999999' 
WAVCIS,ioos:station:WAVCIS:CSI06:1,2011-09-01T03:00:00Z,28.8667,-90.4833,10.0,8.27,82.0,,'11111222,11111222,99999999' 
WAVCIS,ioos:station:WAVCIS:CSI06:1,2011-09-01T04:00:00Z,28.8667,-90.4833,10.0,9.18,87.0,,'11111222,11111222,99999999' 
WAVCIS,ioos:station:WAVCIS:CSI06:1,2011-09-01T05:00:00Z,28.8667,-90.4833,10.0,10.25,83.0,,'11111222,11111222,99999999' 
WAVCIS,ioos:station:WAVCIS:CSI06:1,2011-09-01T06:00:00Z,28.8667,-90.4833,10.0,9.43,85.0,,'11111222,11111222,99999999' 
WAVCIS,ioos:station:WAVCIS:CSI06:1,2011-09-01T07:00:00Z,28.8667,-90.4833,10.0,10.66,86.0,,'11111222,11111222,99999999' 
WAVCIS,ioos:station:WAVCIS:CSI06:1,2011-09-01T08:00:00Z,28.8667,-90.4833,10.0,11.35,82.0,,'11111222,11111222,99999999' 
WAVCIS,ioos:station:WAVCIS:CSI06:1,2011-09-01T09:00:00Z,28.8667,-90.4833,10.0,11.04,73.0,,'11111222,11111222,99999999' 
WAVCIS,ioos:station:WAVCIS:CSI06:1,2011-09-01T10:00:00Z,28.8667,-90.4833,10.0,11.92,76.0,,'11111222,11111222,99999999' 
WAVCIS,ioos:station:WAVCIS:CSI06:1,2011-09-01T11:00:00Z,28.8667,-90.4833,10.0,11.9,84.0,,'11111222,11111222,99999999' 
WAVCIS,ioos:station:WAVCIS:CSI06:1,2011-09-01T12:00:00Z,28.8667,-90.4833,10.0,13.08,70.0,,'11111222,11111222,99999999' 
WAVCIS,ioos:station:WAVCIS:CSI06:1,2011-09-01T13:00:00Z,28.8667,-90.4833,10.0,10.93,71.0,,'11111222,11111222,99999999' 
WAVCIS,ioos:station:WAVCIS:CSI06:1,2011-09-01T14:00:00Z,28.8667,-90.4833,10.0,12.68,70.0,,'11111222,11111222,99999999' 
WAVCIS,ioos:station:WAVCIS:CSI06:1,2011-09-01T15:00:00Z,28.8667,-90.4833,10.0,9.21,105.0,,'11111222,11111222,99999999' 
WAVCIS,ioos:station:WAVCIS:CSI06:1,2011-09-01T16:00:00Z,28.8667,-90.4833,10.0,12.17,103.0,,'11111222,11111222,99999999' 
WAVCIS,ioos:station:WAVCIS:CSI06:1,2011-09-01T17:00:00Z,28.8667,-90.4833,10.0,15.78,122.0,,'11111222,11111222,99999999' 
WAVCIS,ioos:station:WAVCIS:CSI06:1,2011-09-01T18:00:00Z,28.8667,-90.4833,10.0,11.76,122.0,,'11111222,11111222,99999999' 
WAVCIS,ioos:station:WAVCIS:CSI06:1,2011-09-01T19:00:00Z,28.8667,-90.4833,10.0,13.43,98.0,,'11111222,11111222,99999999' 
WAVCIS,ioos:station:WAVCIS:CSI06:1,2011-09-01T20:00:00Z,28.8667,-90.4833,10.0,13.37,96.0,,'11111222,11111222,99999999' 
WAVCIS,ioos:station:WAVCIS:CSI06:1,2011-09-01T21:00:00Z,28.8667,-90.4833,10.0,14.16,100.0,,'11111222,11111222,99999999' 
WAVCIS,ioos:station:WAVCIS:CSI06:1,2011-09-01T22:00:00Z,28.8667,-90.4833,10.0,14.1,86.0,,'11111222,11111222,99999999' 
WAVCIS,ioos:station:WAVCIS:CSI06:1,2011-09-01T23:00:00Z,28.8667,-90.4833,10.0,15.83,76.0,,'11111222,11111222,99999999' 
WAVCIS,ioos:station:WAVCIS:CSI06:1,2011-09-02T00:00:00Z,28.8667,-90.4833,10.0,17.17,90.0,,'11111222,11111222,99999999' 
WAVCIS,ioos:station:WAVCIS:CSI06:1,2011-09-02T01:00:00Z,28.8667,-90.4833,10.0,17.28,83.0,,'11111222,11111222,99999999' 
WAVCIS,ioos:station:WAVCIS:CSI06:1,2011-09-02T02:00:00Z,28.8667,-90.4833,10.0,18.86,91.0,,'11111222,11111222,99999999' 
WAVCIS,ioos:station:WAVCIS:CSI06:1,2011-09-02T03:00:00Z,28.8667,-90.4833,10.0,16.89,92.0,,'11111222,11111222,99999999' 
WAVCIS,ioos:station:WAVCIS:CSI06:1,2011-09-02T04:00:00Z,28.8667,-90.4833,10.0,16.85,115.0,,'11111222,11111222,99999999' 
WAVCIS,ioos:station:WAVCIS:CSI06:1,2011-09-02T05:00:00Z,28.8667,-90.4833,10.0,15.43,105.0,,'11111222,11111222,99999999' 
WAVCIS,ioos:station:WAVCIS:CSI06:1,2011-09-02T06:00:00Z,28.8667,-90.4833,10.0,15.41,98.0,,'11111222,11111222,99999999' 
WAVCIS,ioos:station:WAVCIS:CSI06:1,2011-09-02T07:00:00Z,28.8667,-90.4833,10.0,15.52,111.0,,'11111222,11111222,99999999' 
WAVCIS,ioos:station:WAVCIS:CSI06:1,2011-09-02T08:00:00Z,28.8667,-90.4833,10.0,13.51,112.0,,'11111222,11111222,99999999' 
WAVCIS,ioos:station:WAVCIS:CSI06:1,2011-09-02T09:00:00Z,28.8667,-90.4833,10.0,15.79,114.0,,'11111222,11111222,99999999' 
WAVCIS,ioos:station:WAVCIS:CSI06:1,2011-09-02T10:00:00Z,28.8667,-90.4833,10.0,15.57,110.0,,'11111222,11111222,99999999' 
WAVCIS,ioos:station:WAVCIS:CSI06:1,2011-09-02T11:00:00Z,28.8667,-90.4833,10.0,15.26,101.0,,'11111222,11111222,99999999' 
WAVCIS,ioos:station:WAVCIS:CSI06:1,2011-09-02T12:00:00Z,28.8667,-90.4833,10.0,13.91,113.0,,'11111222,11111222,99999999' 
WAVCIS,ioos:station:WAVCIS:CSI06:1,2011-09-02T13:00:00Z,28.8667,-90.4833,10.0,15.86,101.0,,'11111222,11111222,99999999' 
WAVCIS,ioos:station:WAVCIS:CSI06:1,2011-09-02T14:00:00Z,28.8667,-90.4833,10.0,15.98,105.0,,'11111222,11111222,99999999' 
WAVCIS,ioos:station:WAVCIS:CSI06:1,2011-09-02T15:00:00Z,28.8667,-90.4833,10.0,17.74,109.0,,'11111222,11111222,99999999' 
WAVCIS,ioos:station:WAVCIS:CSI06:1,2011-09-02T16:00:00Z,28.8667,-90.4833,10.0,18.27,114.0,,'11111222,11111222,99999999' 
WAVCIS,ioos:station:WAVCIS:CSI06:1,2011-09-02T17:00:00Z,28.8667,-90.4833,10.0,17.06,106.0,,'11111222,11111222,99999999' 
WAVCIS,ioos:station:WAVCIS:CSI06:1,2011-09-02T18:00:00Z,28.8667,-90.4833,10.0,15.53,98.0,,'11111222,11111222,99999999' 
WAVCIS,ioos:station:WAVCIS:CSI06:1,2011-09-02T19:00:00Z,28.8667,-90.4833,10.0,15.34,82.0,,'11111222,11111222,99999999' 
WAVCIS,ioos:station:WAVCIS:CSI06:1,2011-09-02T20:00:00Z,28.8667,-90.4833,10.0,18.85,95.0,,'11111222,11111222,99999999' 
WAVCIS,ioos:station:WAVCIS:CSI06:1,2011-09-02T21:00:00Z,28.8667,-90.4833,10.0,16.8,103.0,,'11111222,11111222,99999999' 
WAVCIS,ioos:station:WAVCIS:CSI06:1,2011-09-02T22:00:00Z,28.8667,-90.4833,10.0,14.83,96.0,,'11111222,11111222,99999999' 
WAVCIS,ioos:station:WAVCIS:CSI06:1,2011-09-02T23:00:00Z,28.8667,-90.4833,10.0,15.98,71.0,,'11111222,11111222,99999999' 
WAVCIS,ioos:station:WAVCIS:CSI06:1,2011-09-03T00:00:00Z,28.8667,-90.4833,10.0,13.28,98.0,,'11111222,11111222,99999999' 
WAVCIS,ioos:station:WAVCIS:CSI06:1,2011-09-03T01:00:00Z,28.8667,-90.4833,10.0,15.49,102.0,,'11111222,11111222,99999999' 
WAVCIS,ioos:station:WAVCIS:CSI06:1,2011-09-03T02:00:00Z,28.8667,-90.4833,10.0,17.08,111.0,,'11111222,11111222,99999999' 
WAVCIS,ioos:station:WAVCIS:CSI06:1,2011-09-03T03:00:00Z,28.8667,-90.4833,10.0,18.89,109.0,,'11111222,11111222,99999999' 
WAVCIS,ioos:station:WAVCIS:CSI06:1,2011-09-03T04:00:00Z,28.8667,-90.4833,10.0,10.92,121.0,,'11111222,11111222,99999999' 
WAVCIS,ioos:station:WAVCIS:CSI06:1,2011-09-03T05:00:00Z,28.8667,-90.4833,10.0,16.69,135.0,,'11111222,11111222,99999999' 
WAVCIS,ioos:station:WAVCIS:CSI06:1,2011-09-03T06:00:00Z,28.8667,-90.4833,10.0,13.13,130.0,,'11111222,11111222,99999999' 
WAVCIS,ioos:station:WAVCIS:CSI06:1,2011-09-03T07:00:00Z,28.8667,-90.4833,10.0,14.06,149.0,,'11111222,11111222,99999999' 
WAVCIS,ioos:station:WAVCIS:CSI06:1,2011-09-03T08:00:00Z,28.8667,-90.4833,10.0,18.25,149.0,,'11111222,11111222,99999999' 
WAVCIS,ioos:station:WAVCIS:CSI06:1,2011-09-03T09:00:00Z,28.8667,-90.4833,10.0,17.37,159.0,,'11111222,11111222,99999999' 
WAVCIS,ioos:station:WAVCIS:CSI06:1,2011-09-03T10:00:00Z,28.8667,-90.4833,10.0,18.59,154.0,,'11111222,11111222,99999999' 
WAVCIS,ioos:station:WAVCIS:CSI06:1,2011-09-03T11:00:00Z,28.8667,-90.4833,10.0,13.92,153.0,,'11111222,11111222,99999999' 
WAVCIS,ioos:station:WAVCIS:CSI06:1,2011-09-03T12:00:00Z,28.8667,-90.4833,10.0,15.19,145.0,,'11111222,11111222,99999999' 
WAVCIS,ioos:station:WAVCIS:CSI06:1,2011-09-03T13:00:00Z,28.8667,-90.4833,10.0,14.68,145.0,,'11111222,11111222,99999999' 
WAVCIS,ioos:station:WAVCIS:CSI06:1,2011-09-03T14:00:00Z,28.8667,-90.4833,10.0,11.45,153.0,,'11111222,11111222,99999999' 
WAVCIS,ioos:station:WAVCIS:CSI06:1,2011-09-03T15:00:00Z,28.8667,-90.4833,10.0,13.7,174.0,,'11111222,11111222,99999999' 
WAVCIS,ioos:station:WAVCIS:CSI06:1,2011-09-03T16:00:00Z,28.8667,-90.4833,10.0,10.58,167.0,,'11111222,11111222,99999999' 
WAVCIS,ioos:station:WAVCIS:CSI06:1,2011-09-03T17:00:00Z,28.8667,-90.4833,10.0,11.94,173.0,,'11111222,11111222,99999999' 
WAVCIS,ioos:station:WAVCIS:CSI06:1,2011-09-03T18:00:00Z,28.8667,-90.4833,10.0,8.25,177.0,,'11111222,11111222,99999999' 
WAVCIS,ioos:station:WAVCIS:CSI06:1,2011-09-03T19:00:00Z,28.8667,-90.4833,10.0,9.4,159.0,,'11111222,11111222,99999999' 
WAVCIS,ioos:station:WAVCIS:CSI06:1,2011-09-03T20:00:00Z,28.8667,-90.4833,10.0,11.41,165.0,,'11111222,11111222,99999999' 
WAVCIS,ioos:station:WAVCIS:CSI06:1,2011-09-03T21:00:00Z,28.8667,-90.4833,10.0,12.73,175.0,,'11111222,11111222,99999999' 
WAVCIS,ioos:station:WAVCIS:CSI06:1,2011-09-03T22:00:00Z,28.8667,-90.4833,10.0,10.41,168.0,,'11111222,11111222,99999999' 
WAVCIS,ioos:station:WAVCIS:CSI06:1,2011-09-03T23:00:00Z,28.8667,-90.4833,10.0,16.34,191.0,,'11111222,11111222,99999999' 
WAVCIS,ioos:station:WAVCIS:CSI06:1,2011-09-04T00:00:00Z,28.8667,-90.4833,10.0,16.0,186.0,,'11111222,11111222,99999999' 
WAVCIS,ioos:station:WAVCIS:CSI06:1,2011-09-04T01:00:00Z,28.8667,-90.4833,10.0,16.55,201.0,,'11111222,11111222,99999999' 
WAVCIS,ioos:station:WAVCIS:CSI06:1,2011-09-04T02:00:00Z,28.8667,-90.4833,10.0,16.67,207.0,,'11111222,11111222,99999999' 
WAVCIS,ioos:station:WAVCIS:CSI06:1,2011-09-04T03:00:00Z,28.8667,-90.4833,10.0,15.5,186.0,,'11111222,11111222,99999999' 
WAVCIS,ioos:station:WAVCIS:CSI06:1,2011-09-04T04:00:00Z,28.8667,-90.4833,10.0,16.38,196.0,,'11111222,11111222,99999999' 
WAVCIS,ioos:station:WAVCIS:CSI06:1,2011-09-04T05:00:00Z,28.8667,-90.4833,10.0,17.32,192.0,,'11111222,11111222,99999999' 
WAVCIS,ioos:station:WAVCIS:CSI06:1,2011-09-04T06:00:00Z,28.8667,-90.4833,10.0,18.55,193.0,,'11111222,11111222,99999999' 
WAVCIS,ioos:station:WAVCIS:CSI06:1,2011-09-04T07:00:00Z,28.8667,-90.4833,10.0,17.41,187.0,,'11111222,11111222,99999999' 
WAVCIS,ioos:station:WAVCIS:CSI06:1,2011-09-04T08:00:00Z,28.8667,-90.4833,10.0,15.86,195.0,,'11111222,11111222,99999999' 
WAVCIS,ioos:station:WAVCIS:CSI06:1,2011-09-04T09:00:00Z,28.8667,-90.4833,10.0,18.02,190.0,,'11111222,11111222,99999999' 
WAVCIS,ioos:station:WAVCIS:CSI06:1,2011-09-04T10:00:00Z,28.8667,-90.4833,10.0,17.44,202.0,,'11111222,11111222,99999999' 
WAVCIS,ioos:station:WAVCIS:CSI06:1,2011-09-04T11:00:00Z,28.8667,-90.4833,10.0,23.83,224.0,,'11111222,11111222,99999999' 
WAVCIS,ioos:station:WAVCIS:CSI06:1,2011-09-04T12:00:00Z,28.8667,-90.4833,10.0,21.29,195.0,,'11111222,11111222,99999999' 
WAVCIS,ioos:station:WAVCIS:CSI06:1,2011-09-04T13:00:00Z,28.8667,-90.4833,10.0,17.39,213.0,,'11111222,11111222,99999999' 
WAVCIS,ioos:station:WAVCIS:CSI06:1,2011-09-04T14:00:00Z,28.8667,-90.4833,10.0,18.63,210.0,,'11111222,11111222,99999999' 
WAVCIS,ioos:station:WAVCIS:CSI06:1,2011-09-04T15:00:00Z,28.8667,-90.4833,10.0,17.77,224.0,,'11111222,11111222,99999999' 
WAVCIS,ioos:station:WAVCIS:CSI06:1,2011-09-04T16:00:00Z,28.8667,-90.4833,10.0,18.11,213.0,,'11111222,11111222,99999999' 
WAVCIS,ioos:station:WAVCIS:CSI06:1,2011-09-04T17:00:00Z,28.8667,-90.4833,10.0,21.45,219.0,,'11111222,11111222,99999999' 
WAVCIS,ioos:station:WAVCIS:CSI06:1,2011-09-04T18:00:00Z,28.8667,-90.4833,10.0,17.54,215.0,,'11111222,11111222,99999999' 
WAVCIS,ioos:station:WAVCIS:CSI06:1,2011-09-04T19:00:00Z,28.8667,-90.4833,10.0,15.19,227.0,,'11111222,11111222,99999999' 
WAVCIS,ioos:station:WAVCIS:CSI06:1,2011-09-04T20:00:00Z,28.8667,-90.4833,10.0,16.96,227.0,,'11111222,11111222,99999999' 
WAVCIS,ioos:station:WAVCIS:CSI06:1,2011-09-04T21:00:00Z,28.8667,-90.4833,10.0,13.93,218.0,,'11111222,11111222,99999999' 
WAVCIS,ioos:station:WAVCIS:CSI06:1,2011-09-04T22:00:00Z,28.8667,-90.4833,10.0,14.14,216.0,,'11111222,11111222,99999999' 
WAVCIS,ioos:station:WAVCIS:CSI06:1,2011-09-04T23:00:00Z,28.8667,-90.4833,10.0,14.52,209.0,,'11111222,11111222,99999999' 
WAVCIS,ioos:station:WAVCIS:CSI06:1,2011-09-05T00:00:00Z,28.8667,-90.4833,10.0,15.15,213.0,,'11111222,11111222,99999999' 
WAVCIS,ioos:station:WAVCIS:CSI06:1,2011-09-05T01:00:00Z,28.8667,-90.4833,10.0,14.39,212.0,,'11111222,11111222,99999999' 
WAVCIS,ioos:station:WAVCIS:CSI06:1,2011-09-05T02:00:00Z,28.8667,-90.4833,10.0,15.28,207.0,,'11111222,11111222,99999999' 
WAVCIS,ioos:station:WAVCIS:CSI06:1,2011-09-05T03:00:00Z,28.8667,-90.4833,10.0,14.78,206.0,,'11111222,11111222,99999999' 
WAVCIS,ioos:station:WAVCIS:CSI06:1,2011-09-05T04:00:00Z,28.8667,-90.4833,10.0,16.05,205.0,,'11111222,11111222,99999999' 
WAVCIS,ioos:station:WAVCIS:CSI06:1,2011-09-05T05:00:00Z,28.8667,-90.4833,10.0,15.9,235.0,,'11111222,11111222,99999999' 
WAVCIS,ioos:station:WAVCIS:CSI06:1,2011-09-05T06:00:00Z,28.8667,-90.4833,10.0,13.12,233.0,,'11111222,11111222,99999999' 
WAVCIS,ioos:station:WAVCIS:CSI06:1,2011-09-05T07:00:00Z,28.8667,-90.4833,10.0,14.17,220.0,,'11111222,11111222,99999999' 
WAVCIS,ioos:station:WAVCIS:CSI06:1,2011-09-05T20:00:00Z,28.8667,-90.4833,10.0,14.17,220.0,,'11111222,11111222,99999999' 
WAVCIS,ioos:station:WAVCIS:CSI06:1,2011-09-05T21:00:00Z,28.8667,-90.4833,10.0,11.26,321.0,,'11111222,11111222,99999999' 
WAVCIS,ioos:station:WAVCIS:CSI06:1,2011-09-05T22:00:00Z,28.8667,-90.4833,10.0,10.14,332.0,,'11111222,11111222,99999999' 
WAVCIS,ioos:station:WAVCIS:CSI06:1,2011-09-05T23:00:00Z,28.8667,-90.4833,10.0,8.79,339.0,,'11111222,11111222,99999999' 
WAVCIS,ioos:station:WAVCIS:CSI06:1,2011-09-06T00:00:00Z,28.8667,-90.4833,10.0,11.24,334.0,,'11111222,11111222,99999999' 
WAVCIS,ioos:station:WAVCIS:CSI06:1,2011-09-06T01:00:00Z,28.8667,-90.4833,10.0,12.34,335.0,,'11111222,11111222,99999999' 
WAVCIS,ioos:station:WAVCIS:CSI06:1,2011-09-06T02:00:00Z,28.8667,-90.4833,10.0,9.6,0.0,,'11111222,11111222,99999999' 
WAVCIS,ioos:station:WAVCIS:CSI06:1,2011-09-06T03:00:00Z,28.8667,-90.4833,10.0,12.38,6.0,,'11111222,11111222,99999999' 
WAVCIS,ioos:station:WAVCIS:CSI06:1,2011-09-06T04:00:00Z,28.8667,-90.4833,10.0,13.9,16.0,,'11111222,11111222,99999999' 
WAVCIS,ioos:station:WAVCIS:CSI06:1,2011-09-06T05:00:00Z,28.8667,-90.4833,10.0,13.25,15.0,,'11111222,11111222,99999999' 
WAVCIS,ioos:station:WAVCIS:CSI06:1,2011-09-06T06:00:00Z,28.8667,-90.4833,10.0,12.8,14.0,,'11111222,11111222,99999999' 
WAVCIS,ioos:station:WAVCIS:CSI06:1,2011-09-06T07:00:00Z,28.8667,-90.4833,10.0,11.04,14.0,,'11111222,11111222,99999999' 
WAVCIS,ioos:station:WAVCIS:CSI06:1,2011-09-06T08:00:00Z,28.8667,-90.4833,10.0,10.0,11.0,,'11111222,11111222,99999999' 
WAVCIS,ioos:station:WAVCIS:CSI06:1,2011-09-06T09:00:00Z,28.8667,-90.4833,10.0,8.03,8.0,,'11111222,11111222,99999999' 
WAVCIS,ioos:station:WAVCIS:CSI06:1,2011-09-06T10:00:00Z,28.8667,-90.4833,10.0,6.964,8.0,,'11111222,11111222,99999999' 
WAVCIS,ioos:station:WAVCIS:CSI06:1,2011-09-06T11:00:00Z,28.8667,-90.4833,10.0,6.044,2.0,,'11111222,11111222,99999999' 
WAVCIS,ioos:station:WAVCIS:CSI06:1,2011-09-06T12:00:00Z,28.8667,-90.4833,10.0,6.669,7.0,,'11111222,11111222,99999999' 
WAVCIS,ioos:station:WAVCIS:CSI06:1,2011-09-06T13:00:00Z,28.8667,-90.4833,10.0,7.12,9.0,,'11111222,11111222,99999999' 
WAVCIS,ioos:station:WAVCIS:CSI06:1,2011-09-06T14:00:00Z,28.8667,-90.4833,10.0,5.484,3.0,,'11111222,11111222,99999999' 
WAVCIS,ioos:station:WAVCIS:CSI06:1,2011-09-06T15:00:00Z,28.8667,-90.4833,10.0,4.62,353.0,,'11111222,11111222,99999999' 
WAVCIS,ioos:station:WAVCIS:CSI06:1,2011-09-06T16:00:00Z,28.8667,-90.4833,10.0,4.533,346.0,,'11111222,11111222,99999999' 
WAVCIS,ioos:station:WAVCIS:CSI06:1,2011-09-06T17:00:00Z,28.8667,-90.4833,10.0,4.502,0.0,,'11111222,11111222,99999999' 
WAVCIS,ioos:station:WAVCIS:CSI06:1,2011-09-06T18:00:00Z,28.8667,-90.4833,10.0,4.54,1.0,,'11111222,11111222,99999999' 
WAVCIS,ioos:station:WAVCIS:CSI06:1,2011-09-06T19:00:00Z,28.8667,-90.4833,10.0,3.805,2.0,,'11111222,11111222,99999999' 
WAVCIS,ioos:station:WAVCIS:CSI06:1,2011-09-06T20:00:00Z,28.8667,-90.4833,10.0,4.287,358.0,,'11111222,11111222,99999999' 
WAVCIS,ioos:station:WAVCIS:CSI06:1,2011-09-06T21:00:00Z,28.8667,-90.4833,10.0,4.324,347.0,,'11111222,11111222,99999999' 
WAVCIS,ioos:station:WAVCIS:CSI06:1,2011-09-06T22:00:00Z,28.8667,-90.4833,10.0,3.603,2.0,,'11111222,11111222,99999999' 
WAVCIS,ioos:station:WAVCIS:CSI06:1,2011-09-06T23:00:00Z,28.8667,-90.4833,10.0,2.545,3.0,,'11111222,11111222,99999999' 
WAVCIS,ioos:station:WAVCIS:CSI06:1,2011-09-07T00:00:00Z,28.8667,-90.4833,10.0,2.809,357.0,,'11111222,11111222,99999999' 
WAVCIS,ioos:station:WAVCIS:CSI06:1,2011-09-07T01:00:00Z,28.8667,-90.4833,10.0,4.894,16.0,,'11111222,11111222,99999999' 
WAVCIS,ioos:station:WAVCIS:CSI06:1,2011-09-07T02:00:00Z,28.8667,-90.4833,10.0,5.653,4.0,,'11111222,11111222,99999999' 
WAVCIS,ioos:station:WAVCIS:CSI06:1,2011-09-07T03:00:00Z,28.8667,-90.4833,10.0,7.25,9.0,,'11111222,11111222,99999999' 
WAVCIS,ioos:station:WAVCIS:CSI06:1,2011-09-07T04:00:00Z,28.8667,-90.4833,10.0,6.466,16.0,,'11111222,11111222,99999999' 
WAVCIS,ioos:station:WAVCIS:CSI06:1,2011-09-07T05:00:00Z,28.8667,-90.4833,10.0,7.14,15.0,,'11111222,11111222,99999999' 
WAVCIS,ioos:station:WAVCIS:CSI06:1,2011-09-07T06:00:00Z,28.8667,-90.4833,10.0,8.21,15.0,,'11111222,11111222,99999999' 
WAVCIS,ioos:station:WAVCIS:CSI06:1,2011-09-07T07:00:00Z,28.8667,-90.4833,10.0,7.84,28.0,,'11111222,11111222,99999999' 
WAVCIS,ioos:station:WAVCIS:CSI06:1,2011-09-07T08:00:00Z,28.8667,-90.4833,10.0,8.71,20.0,,'11111222,11111222,99999999' 
WAVCIS,ioos:station:WAVCIS:CSI06:1,2011-09-07T09:00:00Z,28.8667,-90.4833,10.0,8.41,25.0,,'11111222,11111222,99999999' 
WAVCIS,ioos:station:WAVCIS:CSI06:1,2011-09-07T10:00:00Z,28.8667,-90.4833,10.0,8.63,16.0,,'11111222,11111222,99999999' 
WAVCIS,ioos:station:WAVCIS:CSI06:1,2011-09-07T11:00:00Z,28.8667,-90.4833,10.0,9.01,22.0,,'11111222,11111222,99999999' 
WAVCIS,ioos:station:WAVCIS:CSI06:1,2011-09-07T12:00:00Z,28.8667,-90.4833,10.0,9.2,23.0,,'11111222,11111222,99999999' 
WAVCIS,ioos:station:WAVCIS:CSI06:1,2011-09-07T13:00:00Z,28.8667,-90.4833,10.0,9.34,21.0,,'11111222,11111222,99999999' 
WAVCIS,ioos:station:WAVCIS:CSI06:1,2011-09-07T14:00:00Z,28.8667,-90.4833,10.0,8.74,24.0,,'11111222,11111222,99999999' 
WAVCIS,ioos:station:WAVCIS:CSI06:1,2011-09-07T15:00:00Z,28.8667,-90.4833,10.0,7.72,28.0,,'11111222,11111222,99999999' 
WAVCIS,ioos:station:WAVCIS:CSI06:1,2011-09-07T16:00:00Z,28.8667,-90.4833,10.0,7.35,22.0,,'11111222,11111222,99999999' 
WAVCIS,ioos:station:WAVCIS:CSI06:1,2011-09-07T17:00:00Z,28.8667,-90.4833,10.0,7.05,19.0,,'11111222,11111222,99999999' 
WAVCIS,ioos:station:WAVCIS:CSI06:1,2011-09-07T18:00:00Z,28.8667,-90.4833,10.0,6.692,12.0,,'11111222,11111222,99999999' 
WAVCIS,ioos:station:WAVCIS:CSI06:1,2011-09-07T19:00:00Z,28.8667,-90.4833,10.0,6.471,17.0,,'11111222,11111222,99999999' 
WAVCIS,ioos:station:WAVCIS:CSI06:1,2011-09-07T20:00:00Z,28.8667,-90.4833,10.0,4.412,9.0,,'11111222,11111222,99999999' 
WAVCIS,ioos:station:WAVCIS:CSI06:1,2011-09-07T21:00:00Z,28.8667,-90.4833,10.0,4.608,19.0,,'11111222,11111222,99999999' 
WAVCIS,ioos:station:WAVCIS:CSI06:1,2011-09-07T22:00:00Z,28.8667,-90.4833,10.0,5.625,16.0,,'11111222,11111222,99999999' 
WAVCIS,ioos:station:WAVCIS:CSI06:1,2011-09-07T23:00:00Z,28.8667,-90.4833,10.0,5.193,38.0,,'11111222,11111222,99999999' 
WAVCIS,ioos:station:WAVCIS:CSI06:1,2011-09-08T00:00:00Z,28.8667,-90.4833,10.0,6.061,33.0,,'11111222,11111222,99999999' 
WAVCIS,ioos:station:WAVCIS:CSI06:1,2011-09-08T01:00:00Z,28.8667,-90.4833,10.0,7.77,28.0,,'11111222,11111222,99999999' 
WAVCIS,ioos:station:WAVCIS:CSI06:1,2011-09-08T02:00:00Z,28.8667,-90.4833,10.0,8.41,36.0,,'11111222,11111222,99999999' 
WAVCIS,ioos:station:WAVCIS:CSI06:1,2011-09-08T03:00:00Z,28.8667,-90.4833,10.0,7.31,33.0,,'11111222,11111222,99999999' 
WAVCIS,ioos:station:WAVCIS:CSI06:1,2011-09-08T04:00:00Z,28.8667,-90.4833,10.0,6.919,33.0,,'11111222,11111222,99999999' 
WAVCIS,ioos:station:WAVCIS:CSI06:1,2011-09-08T05:00:00Z,28.8667,-90.4833,10.0,7.24,34.0,,'11111222,11111222,99999999' 
WAVCIS,ioos:station:WAVCIS:CSI06:1,2011-09-08T06:00:00Z,28.8667,-90.4833,10.0,7.38,33.0,,'11111222,11111222,99999999' 
WAVCIS,ioos:station:WAVCIS:CSI06:1,2011-09-08T07:00:00Z,28.8667,-90.4833,10.0,7.11,36.0,,'11111222,11111222,99999999' 
WAVCIS,ioos:station:WAVCIS:CSI06:1,2011-09-08T08:00:00Z,28.8667,-90.4833,10.0,6.545,42.0,,'11111222,11111222,99999999' 
WAVCIS,ioos:station:WAVCIS:CSI06:1,2011-09-08T09:00:00Z,28.8667,-90.4833,10.0,7.35,25.0,,'11111222,11111222,99999999' 
WAVCIS,ioos:station:WAVCIS:CSI06:1,2011-09-08T10:00:00Z,28.8667,-90.4833,10.0,6.887,31.0,,'11111222,11111222,99999999' 
WAVCIS,ioos:station:WAVCIS:CSI06:1,2011-09-08T11:00:00Z,28.8667,-90.4833,10.0,7.02,21.0,,'11111222,11111222,99999999' 
WAVCIS,ioos:station:WAVCIS:CSI06:1,2011-09-08T12:00:00Z,28.8667,-90.4833,10.0,6.511,27.0,,'11111222,11111222,99999999' 
WAVCIS,ioos:station:WAVCIS:CSI06:1,2011-09-08T13:00:00Z,28.8667,-90.4833,10.0,5.181,27.0,,'11111222,11111222,99999999' 
WAVCIS,ioos:station:WAVCIS:CSI06:1,2011-09-08T14:00:00Z,28.8667,-90.4833,10.0,5.832,28.0,,'11111222,11111222,99999999' 
WAVCIS,ioos:station:WAVCIS:CSI06:1,2011-09-08T15:00:00Z,28.8667,-90.4833,10.0,5.687,27.0,,'11111222,11111222,99999999' 
WAVCIS,ioos:station:WAVCIS:CSI06:1,2011-09-08T16:00:00Z,28.8667,-90.4833,10.0,6.55,22.0,,'11111222,11111222,99999999' 
WAVCIS,ioos:station:WAVCIS:CSI06:1,2011-09-08T17:00:00Z,28.8667,-90.4833,10.0,4.91,33.0,,'11111222,11111222,99999999' 
WAVCIS,ioos:station:WAVCIS:CSI06:1,2011-09-08T18:00:00Z,28.8667,-90.4833,10.0,3.965,32.0,,'11111222,11111222,99999999' 
WAVCIS,ioos:station:WAVCIS:CSI06:1,2011-09-08T19:00:00Z,28.8667,-90.4833,10.0,2.893,29.0,,'11111222,11111222,99999999' 
WAVCIS,ioos:station:WAVCIS:CSI06:1,2011-09-08T20:00:00Z,28.8667,-90.4833,10.0,4.041,13.0,,'11111222,11111222,99999999' 
WAVCIS,ioos:station:WAVCIS:CSI06:1,2011-09-08T21:00:00Z,28.8667,-90.4833,10.0,0.0,293.0,,'11111222,11111222,99999999' 
WAVCIS,ioos:station:WAVCIS:CSI06:1,2011-09-08T22:00:00Z,28.8667,-90.4833,10.0,0.77,342.0,,'11111222,11111222,99999999' 
WAVCIS,ioos:station:WAVCIS:CSI06:1,2011-09-08T23:00:00Z,28.8667,-90.4833,10.0,1.127,344.0,,'11111222,11111222,99999999' 
WAVCIS,ioos:station:WAVCIS:CSI06:1,2011-09-09T00:00:00Z,28.8667,-90.4833,10.0,1.243,79.0,,'11111222,11111222,99999999' 
WAVCIS,ioos:station:WAVCIS:CSI06:1,2011-09-09T01:00:00Z,28.8667,-90.4833,10.0,3.141,76.0,,'11111222,11111222,99999999' 
WAVCIS,ioos:station:WAVCIS:CSI06:1,2011-09-09T02:00:00Z,28.8667,-90.4833,10.0,3.221,63.0,,'11111222,11111222,99999999' 
WAVCIS,ioos:station:WAVCIS:CSI06:1,2011-09-09T03:00:00Z,28.8667,-90.4833,10.0,3.711,69.0,,'11111222,11111222,99999999' 
WAVCIS,ioos:station:WAVCIS:CSI06:1,2011-09-09T04:00:00Z,28.8667,-90.4833,10.0,2.96,76.0,,'11111222,11111222,99999999' 
WAVCIS,ioos:station:WAVCIS:CSI06:1,2011-09-09T05:00:00Z,28.8667,-90.4833,10.0,2.225,65.0,,'11111222,11111222,99999999' 
WAVCIS,ioos:station:WAVCIS:CSI06:1,2011-09-09T06:00:00Z,28.8667,-90.4833,10.0,2.157,42.0,,'11111222,11111222,99999999' 
WAVCIS,ioos:station:WAVCIS:CSI06:1,2011-09-09T07:00:00Z,28.8667,-90.4833,10.0,1.538,356.0,,'11111222,11111222,99999999' 
WAVCIS,ioos:station:WAVCIS:CSI06:1,2011-09-09T08:00:00Z,28.8667,-90.4833,10.0,3.347,345.0,,'11111222,11111222,99999999' 
WAVCIS,ioos:station:WAVCIS:CSI06:1,2011-09-09T09:00:00Z,28.8667,-90.4833,10.0,3.441,331.0,,'11111222,11111222,99999999' 
WAVCIS,ioos:station:WAVCIS:CSI06:1,2011-09-09T10:00:00Z,28.8667,-90.4833,10.0,4.035,331.0,,'11111222,11111222,99999999' 
WAVCIS,ioos:station:WAVCIS:CSI06:1,2011-09-09T11:00:00Z,28.8667,-90.4833,10.0,2.276,343.0,,'11111222,11111222,99999999' 
WAVCIS,ioos:station:WAVCIS:CSI06:1,2011-09-09T12:00:00Z,28.8667,-90.4833,10.0,2.574,8.0,,'11111222,11111222,99999999' 
WAVCIS,ioos:station:WAVCIS:CSI06:1,2011-09-09T13:00:00Z,28.8667,-90.4833,10.0,3.185,15.0,,'11111222,11111222,99999999' 
WAVCIS,ioos:station:WAVCIS:CSI06:1,2011-09-09T14:00:00Z,28.8667,-90.4833,10.0,2.789,31.0,,'11111222,11111222,99999999' 
WAVCIS,ioos:station:WAVCIS:CSI06:1,2011-09-09T15:00:00Z,28.8667,-90.4833,10.0,1.926,44.0,,'11111222,11111222,99999999' 
WAVCIS,ioos:station:WAVCIS:CSI06:1,2011-09-09T16:00:00Z,28.8667,-90.4833,10.0,2.453,42.0,,'11111222,11111222,99999999' 
WAVCIS,ioos:station:WAVCIS:CSI06:1,2011-09-09T17:00:00Z,28.8667,-90.4833,10.0,2.347,23.0,,'11111222,11111222,99999999' 